Starlink 32823

operational
NORAD ID: 62823 Int'l Des: 2025-018 Owner: SPXS Country: US Constellation: starlink
LEOCIRCULAR

Starlink 32823について

説明を読み込み中...

リアルタイム位置

3D地球を読み込み中...

次回通過

高度履歴

Altitude vs Time

uPlot chart will show altitude changes over time

軌道要素

1 62823U 25018T 25308.88594738 .00007869 00000-0 27739-3 0 9998
2 62823 53.1587 169.0632 0001792 90.9395 269.1811 15.30216545 44078
Epoch: Nov 4, 2025 • Age: 7 hours

現在のステータス

高度 475.9 km
速度 7.63 km/s
衛星直下点 28.52°N, 143.16°W
打ち上げ日 Jan 24, 2025
運用期間 0.7 years
タイプ internet

技術仕様

分類 Payload
質量 730.00 kg
乾燥質量 700.00 kg
総質量 730.00 kg
長さ 0.30 m
直径 4.10 m
スパン 29.00 m
形状 Box + pan
製造者 SPXS
バスタイプ Starlink V2M
フェーズステータス In Orbit
所有者/国 SPXS/US

大規模コンステレーション

Loading constellations...